| time (UTC) | temp C | wind direction | speed KPH | gust KPH | rain 1hr cm | rain 24hr cm | rain mn cm | humidity % | barometer mb |
| 20260502213041 | 18 | 167 | 1.6 | 11.3 | 0.00 | 0.00 | 0.00 | 35 | 1011.2 |
| 20260502211556 | 18 | 207 | 3.2 | 11.3 | 0.00 | 0.00 | 0.00 | 34 | 1011.5 |
| 20260502210051 | 19 | 178 | 3.2 | 12.9 | 0.00 | 0.00 | 0.00 | 35 | 1011.7 |
| 20260502204543 | 19 | 0 | 3.2 | 19.3 | 0.00 | 0.00 | 0.00 | 33 | 1011.9 |
| 20260502203055 | 19 | 160 | 4.8 | 19.3 | 0.00 | 0.00 | 0.00 | 35 | 1012.3 |
| 20260502201547 | 18 | 225 | 3.2 | 12.9 | 0.00 | 0.00 | 0.00 | 37 | 1012.8 |
| 20260502200042 | 18 | 161 | 6.4 | 20.9 | 0.00 | 0.00 | 0.00 | 35 | 1013.1 |
| 20260502194540 | 17 | 140 | 3.2 | 8.0 | 0.00 | 0.00 | 0.00 | 38 | 1013.2 |
| 20260502193046 | 17 | 150 | 1.6 | 14.5 | 0.00 | 0.00 | 0.00 | 35 | 1013.8 |
| 20260502191544 | 18 | 0 | 4.8 | 16.1 | 0.00 | 0.00 | 0.00 | 38 | 1014.0 |
| 20260502190041 | 17 | 175 | 3.2 | 14.5 | 0.00 | 0.00 | 0.00 | 36 | 1014.4 |
| 20260502184539 | 17 | 110 | 4.8 | 14.5 | 0.00 | 0.00 | 0.00 | 37 | 1014.6 |
| 20260502183053 | 17 | 122 | 4.8 | 14.5 | 0.00 | 0.00 | 0.00 | 37 | 1014.8 |
| 20260502181546 | 16 | 109 | 3.2 | 11.3 | 0.00 | 0.00 | 0.00 | 41 | 1015.2 |
| 20260502163045 | 14 | 218 | 3.2 | 11.3 | 0.00 | 0.00 | 0.00 | 42 | 1016.7 |
| 20260502161547 | 13 | 136 | 3.2 | 11.3 | 0.00 | 0.00 | 0.00 | 43 | 1017.0 |
| 20260502151547 | 12 | 128 | 3.2 | 9.7 | 0.00 | 0.00 | 0.00 | 43 | 1017.6 |
| 20260502123047 | 2 | 0 | 0.0 | 0.0 | 0.00 | 0.00 | 0.00 | 86 | 1018.8 |
| 20260502121544 | 0 | 0 | 0.0 | 0.0 | 0.00 | 0.00 | 0.00 | 88 | 1018.7 |
| 20260502114601 | -1 | 0 | 0.0 | 0.0 | 0.00 | 0.00 | 0.00 | 87 | 1018.6 |
| 20260502113037 | -1 | 0 | 0.0 | 0.0 | 0.00 | 0.00 | 0.00 | 86 | 1018.6 |
| 20260502111538 | -1 | 0 | 0.0 | 0.0 | 0.00 | 0.00 | 0.00 | 86 | 1018.6 |
| 20260502110046 | -1 | 0 | 0.0 | 0.0 | 0.00 | 0.00 | 0.00 | 86 | 1018.6 |
| 20260502104544 | -1 | 0 | 0.0 | 0.0 | 0.00 | 0.00 | 0.00 | 86 | 1018.6 |
| 20260502103041 | -1 | 0 | 0.0 | 0.0 | 0.00 | 0.00 | 0.00 | 85 | 1018.4 |
| 20260502101559 | -1 | 0 | 0.0 | 0.0 | 0.00 | 0.00 | 0.00 | 85 | 1018.4 |
| 20260502070046 | 0 | 0 | 0.0 | 0.0 | 0.00 | 0.00 | 0.00 | 80 | 1018.3 |
| 20260502064612 | 0 | 0 | 0.0 | 0.0 | 0.00 | 0.00 | 0.00 | 79 | 1018.4 |
| 20260502063054 | 0 | 0 | 0.0 | 0.0 | 0.00 | 0.00 | 0.00 | 79 | 1018.6 |
| 20260502061543 | 0 | 0 | 0.0 | 0.0 | 0.00 | 0.00 | 0.00 | 79 | 1018.5 |
| 20260502060045 | 1 | 0 | 0.0 | 0.0 | 0.00 | 0.00 | 0.00 | 78 | 1018.6 |
| 20260502054541 | 1 | 0 | 0.0 | 0.0 | 0.00 | 0.00 | 0.00 | 78 | 1018.5 |
| 20260502053041 | 1 | 0 | 0.0 | 0.0 | 0.00 | 0.00 | 0.00 | 77 | 1018.6 |
| 20260502051548 | 1 | 0 | 0.0 | 0.0 | 0.00 | 0.00 | 0.00 | 76 | 1018.5 |
| 20260502050047 | 1 | 0 | 0.0 | 0.0 | 0.00 | 0.00 | 0.00 | 76 | 1018.7 |
| 20260502044542 | 2 | 0 | 0.0 | 0.0 | 0.00 | 0.00 | 0.00 | 74 | 1018.6 |
| 20260502043111 | 2 | 0 | 0.0 | 0.0 | 0.00 | 0.00 | 0.00 | 74 | 1018.6 |
| 20260502041548 | 2 | 0 | 0.0 | 0.0 | 0.00 | 0.00 | 0.00 | 73 | 1018.6 |
| 20260502040042 | 2 | 0 | 0.0 | 0.0 | 0.00 | 0.00 | 0.00 | 71 | 1018.7 |
| 20260502034540 | 3 | 0 | 0.0 | 0.0 | 0.00 | 0.00 | 0.00 | 70 | 1018.6 |
| 20260502033038 | 3 | 0 | 0.0 | 0.0 | 0.00 | 0.00 | 0.00 | 66 | 1018.7 |
| 20260502031545 | 3 | 0 | 0.0 | 0.0 | 0.00 | 0.00 | 0.00 | 65 | 1018.6 |
| 20260502030048 | 4 | 0 | 0.0 | 0.0 | 0.00 | 0.00 | 0.00 | 64 | 1018.6 |
| 20260502024542 | 5 | 0 | 0.0 | 0.0 | 0.00 | 0.00 | 0.00 | 62 | 1018.6 |
| 20260502023043 | 5 | 0 | 0.0 | 0.0 | 0.00 | 0.00 | 0.00 | 59 | 1018.7 |
| 20260502021542 | 6 | 0 | 0.0 | 0.0 | 0.00 | 0.00 | 0.00 | 57 | 1018.6 |
| 20260502020040 | 7 | 0 | 0.0 | 0.0 | 0.00 | 0.00 | 0.00 | 51 | 1018.4 |
| 20260502014541 | 7 | 0 | 0.0 | 0.0 | 0.00 | 0.00 | 0.00 | 48 | 1018.2 |
| 20260502013052 | 8 | 0 | 0.0 | 0.0 | 0.00 | 0.00 | 0.00 | 45 | 1018.1 |
| 20260502011556 | 9 | 0 | 0.0 | 0.0 | 0.00 | 0.00 | 0.00 | 41 | 1018.0 |
| 20260502010044 | 10 | 0 | 0.0 | 0.0 | 0.00 | 0.00 | 0.00 | 38 | 1017.9 |
| 20260502004544 | 10 | 0 | 0.0 | 0.0 | 0.00 | 0.00 | 0.00 | 36 | 1017.9 |
| 20260502003041 | 10 | 0 | 0.0 | 3.2 | 0.00 | 0.00 | 0.00 | 36 | 1017.9 |
| 20260502001540 | 10 | 182 | 0.0 | 3.2 | 0.00 | 0.00 | 0.00 | 37 | 1018.0 |
| 20260502000046 | 10 | 0 | 0.0 | 4.8 | 0.00 | 0.00 | 0.00 | 37 | 1018.0 |
| 20260501234545 | 10 | 205 | 3.2 | 11.3 | 0.00 | 0.00 | 0.00 | 36 | 1018.0 |
| 20260501233043 | 11 | 215 | 0.0 | 4.8 | 0.00 | 0.00 | 0.00 | 36 | 1018.0 |
| 20260501231541 | 11 | 188 | 0.0 | 6.4 | 0.00 | 0.00 | 0.00 | 36 | 1018.0 |
| 20260501230040 | 11 | 0 | 0.0 | 9.7 | 0.00 | 0.00 | 0.00 | 34 | 1018.0 |
| 20260501224541 | 11 | 316 | 3.2 | 9.7 | 0.00 | 0.00 | 0.00 | 33 | 1018.0 |
| 20260501223042 | 12 | 208 | 0.0 | 12.9 | 0.00 | 0.00 | 0.00 | 35 | 1018.0 |
| 20260501221545 | 11 | 288 | 1.6 | 4.8 | 0.00 | 0.00 | 0.00 | 34 | 1018.1 |
| 20260501220046 | 11 | 306 | 1.6 | 9.7 | 0.00 | 0.00 | 0.00 | 33 | 1018.2 |
| 20260501214543 | 12 | 183 | 3.2 | 9.7 | 0.00 | 0.00 | 0.00 | 34 | 1018.1 |